This demonstration page uses our WeatherBlox Daily Observations layout. Learn more.

Left ArrowRight Arrow

39.92423, -83.80882

Hourly Observations for March 4, 2022

Temp ( °F °C ) Dew Point ( °F °C ) Humidity (%) Winds ( mph kmh ) Pressure ( in mb ) Visibility ( mi km ) Precip ( " mm )
12:56 am 00:56 Clear 24 -4.4 21 -6.1 88 88 ENE 7 11 30.44 1031 10 16 0.00 0.00
1:56 am 01:56 Mostly Clear 22 -5.6 21 -6.1 96 96 E 6 9 30.44 1031 10 16 0.00 0.00
2:56 am 02:56 Clear 23 -5 22 -5.6 96 96 E 7 11 30.45 1031 10 16 0.00 0.00
3:56 am 03:56 Clear 25 -3.9 21 -6.1 85 85 E 9 15 30.45 1031 10 16 0.00 0.00
4:56 am 04:56 Mostly Clear 24 -4.4 20 -6.7 84 84 E 8 13 30.45 1031 10 16 0.00 0.00
5:56 am 05:56 Mostly Cloudy 23 -5 20 -6.7 88 88 E 9 15 30.46 1032 10 16 0.00 0.00
6:56 am 06:56 Clear 23 -5 20 -6.7 88 88 E 9 15 30.46 1032 10 16 0.00 0.00
7:56 am 07:56 Sunny 25 -3.9 20 -6.7 81 81 E 9 15 30.48 1032 10 16 0.00 0.00
8:56 am 08:56 Sunny 28 -2.2 21 -6.1 75 75 E 10 17 30.49 1033 10 16 0.00 0.00
9:56 am 09:56 Sunny 31 -0.6 23 -5 72 72 E 9 15 30.50 1033 10 16 0.00 0.00
10:56 am 10:56 Sunny 35 1.7 19 -7.2 52 52 ESE 8 13 30.49 1033 10 16 0.00 0.00
11:56 am 11:56 Sunny 39 3.9 20 -6.7 46 46 ESE 7 11 30.48 1032 10 16 0.00 0.00
12:56 pm 12:56 Sunny 42 5.6 18 -7.8 38 38 VRB 6 9 30.45 1031 10 16 0.00 0.00
1:56 pm 13:56 Sunny 44 6.7 17 -8.3 34 34 ESE 8 13 30.42 1030 10 16 0.00 0.00
2:56 pm 14:56 Sunny 47 8.3 18 -7.8 31 31 ENE 8 13 30.39 1029 10 16 0.00 0.00
3:56 pm 15:56 Sunny 46 7.8 16 -8.9 30 30 ESE 8 13 30.38 1029 10 16 0.00 0.00
4:56 pm 16:56 Sunny 45 7.2 16 -8.9 31 31 E 10 17 30.36 1028 10 16 0.00 0.00
5:56 pm 17:56 Sunny 43 6.1 18 -7.8 37 37 E 8 13 30.35 1028 10 16 0.00 0.00
6:56 pm 18:56 Clear 40 4.4 19 -7.2 43 43 ESE 6 9 30.36 1028 10 16 0.00 0.00
7:56 pm 19:56 Clear 39 3.9 21 -6.1 48 48 E 9 15 30.35 1028 10 16 0.00 0.00
8:56 pm 20:56 Clear 37 2.8 21 -6.1 52 52 E 10 17 30.33 1027 10 16 0.00 0.00
9:56 pm 21:56 Clear 39 3.9 19 -7.2 45 45 E 14 22 30.32 1027 10 16 0.00 0.00
10:56 pm 22:56 Clear 39 3.9 19 -7.2 45 45 E 12 19 30.30 1026 10 16 0.00 0.00
11:56 pm 23:56 Clear 38 3.3 18 -7.8 44 44 E 12 19 30.27 1025 10 16 0.00 0.00

Powered by AerisWeather